Tracking 30685 objects as of 17-Jun-2025
HD Live streaming from Space Station
objects crossing your sky now

NOAA 16 DEB

Track NOAA 16 DEB now!
10-day predictions


NORAD ID: 41534
Int'l Code: 2000-055NJ
Perigee: 785.3 km
Apogee: 818.4 km
Inclination: 98.8 °
Period: 100.8 minutes
Semi major axis: 7172 km
RCS: Unknown
Launch date: September 21, 2000
Source: United States (US)
Launch site: AIR FORCE WESTERN TEST RANGE (AFWTR)

Note: This is SATELLITE DEBRIS
Your satellite tracking list
Your tracking list is empty




NASA's NSSDC Master Catalog

Two Line Element Set (TLE):
1 41534U 00055NJ  25167.17293961  .00004700  00000-0  18654-2 0  9993
2 41534  98.8216 245.0704 0023124 165.9363 194.2467 14.29109396470963
Source of the keplerian elements: AFSPC